Dewpoint
67 68 70 68 68 68 70 70 71 73 73 75 74 75 75 75 75 75 75 75 75 75 75 74 74 74 75 74 74 74 74 74 74 75 74 73 73 73 74 74 74 72 74
66 68 70 68 67 67 69 70 72 73 74 75 75 75 75 75 74 75 75 75 75 75 75 74 74 74 73 73 74 74 74 74 75 74 74 74 73 73 73 73 73 71 73
65 68 70 71 70 70 72 73 73 74 74 74 75 75 75 74 74 75 74 75 75 75 75 75 75 75 74 74 74 74 74 74 75 74 74 72 72 73 73 73 73 72 72
66 68 70 72 72 70 72 74 74 74 74 74 74 74 75 75 74 74 74 74 75 75 75 75 75 75 74 74 74 74 74 74 74 73 71 71 70 74 74 73 74 74 73
68 70 71 73 73 73 74 72 74 74 74 74 74 74 74 74 74 74 74 75 75 75 74 74 74 74 73 73 73 73 73 72 73 70 70 72 72 73 74 74 72 72 73
68 71 72 74 73 74 74 75 74 74 74 74 74 74 74 74 74 74 74 74 74 74 73 73 73 73 73 72 72 72 71 71 71 68 70 72 71 73 72 71 70 70 70
69 72 72 74 74 74 74 74 74 74 74 73 74 74 74 74 74 74 74 74 73 73 74 74 72 72 72 71 71 70 71 72 66 66 68 68 69 72 70 70 70 71 71
70 72 71 74 73 74 74 74 74 74 74 74 73 74 74 74 74 74 73 73 72 71 71 71 70 69 69 69 69 69 71 73 66 67 68 69 72 71 70 70 71 71 71
71 72 72 71 72 73 74 74 74 74 74 74 74 74 74 74 73 73 73 73 73 73 72 72 71 70 69 69 70 71 71 72 65 67 66 69 73 71 71 71 71 71 72
70 71 71 71 72 72 73 74 74 74 74 73 74 74 73 73 73 73 75 74 73 73 72 72 73 73 73 73 73 73 71 71 64 64 66 68 73 71 71 71 71 72 73
69 70 71 71 72 72 72 73 74 74 74 74 73 73 74 70 71 72 72 73 72 72 72 72 72 73 73 74 75 74 73 70 66 65 66 71 73 71 71 72 73 73 74
68 69 70 70 71 71 72 72 72 72 72 72 72 71 71 70 69 70 72 73 72 72 73 73 73 73 73 71 70 73 73 72 67 64 66 73 73 72 73 73 74 75 75
67 66 69 69 69 69 72 71 72 72 71 70 68 67 70 70 70 70 70 72 72 72 71 71 72 73 72 70 70 69 71 72 67 63 66 73 74 74 74 74 75 75 75
63 63 65 68 68 69 71 71 70 70 71 70 66 64 62 68 69 68 68 69 69 70 69 69 69 69 70 70 69 68 70 69 63 63 66 74 74 74 74 75 76 75 75
61 62 65 69 67 68 70 70 70 69 70 70 68 70 70 68 66 69 69 70 70 71 70 69 70 68 67 67 66 67 67 62 62 63 65 73 74 75 74 75 76 76 76
64 64 65 68 68 67 67 66 66 68 67 66 61 68 68 69 69 71 69 70 70 71 71 70 69 69 68 66 62 59 61 61 62 62 66 68 74 75 76 76 77 77 76
66 67 66 66 68 66 61 67 67 67 67 67 61 65 68 70 70 68 66 65 67 69 68 68 67 69 68 65 61 62 61 62 62 64 69 69 70 72 72 72 74 75 75
66 66 67 66 68 67 67 68 65 65 68 70 69 69 69 72 70 66 66 64 67 66 67 67 69 71 68 64 64 64 65 64 64 67 68 71 66 68 69 68 71 74 75
66 66 67 68 66 68 67 68 67 68 69 69 69 69 71 71 68 65 65 64 64 65 69 69 69 69 68 66 66 64 63 60 61 67 69 67 67 65 65 67 70 74 75
66 65 66 66 66 68 68 68 66 68 69 68 70 71 71 72 71 67 64 64 65 67 68 69 69 69 67 68 62 61 64 66 65 67 68 69 66 68 67 68 69 71 74
65 65 66 66 66 68 68 67 63 65 68 68 70 65 72 70 69 66 65 62 66 67 68 69 70 66 66 66 61 56 62 67 64 64 68 68 69 70 70 71 71 73 73
64 66 67 66 66 69 70 68 68 67 69 69 69 65 71 72 70 68 66 62 66 66 68 67 70 67 65 66 64 62 59 59 63 62 66 66 66 70 70 69 71 72 70
65 65 66 67 68 70 69 69 68 69 70 69 69 69 70 70 69 67 64 64 66 65 63 65 66 67 61 62 65 60 57 60 61 63 65 66 66 68 67 69 69 69 71
65 65 66 69 69 68 68 69 65 65 67 68 69 70 70 70 69 68 66 66 68 67 63 64 71 67 63 59 63 68 66 63 59 61 66 67 67 65 67 69 68 70 70
65 66 66 69 69 70 69 69 68 67 67 68 69 69 68 71 70 69 68 67 69 69 69 70 71 68 68 64 64 64 66 66 65 62 62 66 66 64 65 70 68 71 70
65 66 68 68 68 70 69 69 69 67 66 66 68 69 69 69 70 71 69 70 70 72 71 72 72 71 71 68 64 66 66 64 64 65 64 65 63 64 67 72 70 70 72
Lifted_Index
1 1 1 1 2 1 1 -0 -1 -3 -4 -4 -5 -5 -5 -4 -4 -4 -5 -5 -5 -5 -4 -4 -4 -4 -4 -4 -4 -4 -4 -5 -5 -5 -4 -4 -4 -4 -4 -5 -5 -5 -5
1 1 0 1 1 1 0 -1 -2 -3 -4 -4 -5 -5 -5 -5 -5 -5 -5 -5 -5 -5 -5 -4 -4 -4 -4 -4 -4 -5 -5 -5 -5 -5 -4 -4 -4 -4 -4 -4 -5 -5 -5
1 0 -0 -1 -0 -0 -1 -2 -3 -4 -4 -4 -5 -5 -5 -5 -5 -5 -5 -5 -5 -5 -5 -5 -5 -5 -5 -5 -5 -5 -5 -5 -5 -5 -4 -4 -4 -4 -4 -5 -5 -5 -5
0 -1 -1 -2 -2 -2 -2 -3 -3 -4 -4 -5 -5 -5 -5 -5 -5 -5 -5 -6 -6 -6 -5 -5 -5 -5 -5 -5 -5 -5 -5 -5 -5 -4 -4 -4 -4 -5 -5 -5 -5 -5 -5
-1 -1 -2 -3 -3 -3 -3 -3 -4 -4 -4 -5 -5 -5 -5 -5 -5 -6 -6 -6 -6 -6 -5 -5 -5 -5 -5 -5 -5 -5 -4 -5 -4 -4 -4 -4 -5 -5 -6 -5 -5 -5 -5
-1 -2 -3 -3 -3 -4 -4 -4 -4 -4 -5 -5 -5 -5 -5 -6 -6 -6 -6 -6 -6 -5 -5 -5 -5 -5 -4 -4 -4 -4 -4 -4 -3 -3 -3 -4 -4 -5 -5 -4 -4 -4 -4
-2 -3 -4 -4 -4 -4 -5 -5 -5 -5 -5 -5 -5 -5 -6 -6 -6 -6 -6 -6 -5 -5 -5 -5 -4 -4 -4 -3 -3 -3 -4 -4 -3 -2 -2 -2 -3 -4 -4 -4 -4 -4 -4
-3 -4 -4 -4 -4 -5 -5 -5 -5 -6 -6 -6 -5 -6 -6 -6 -6 -6 -6 -6 -5 -5 -4 -4 -4 -3 -3 -2 -2 -3 -3 -3 -2 -1 -1 -2 -3 -3 -4 -4 -4 -4 -5
-4 -4 -4 -4 -4 -5 -5 -6 -6 -6 -6 -6 -6 -6 -6 -6 -6 -6 -6 -6 -5 -5 -5 -4 -4 -3 -3 -3 -3 -3 -3 -3 -2 -1 -1 -2 -3 -3 -4 -4 -4 -5 -5
-4 -4 -4 -4 -4 -5 -5 -6 -6 -6 -6 -6 -6 -6 -6 -5 -6 -6 -6 -6 -6 -5 -5 -5 -4 -4 -4 -4 -4 -4 -4 -3 -2 -0 -1 -2 -3 -4 -4 -4 -5 -5 -5
-3 -4 -4 -4 -4 -4 -5 -6 -6 -6 -6 -6 -6 -6 -6 -5 -5 -5 -5 -5 -5 -5 -5 -5 -5 -5 -5 -5 -5 -5 -5 -4 -2 -1 -1 -2 -3 -4 -5 -5 -5 -6 -6
-3 -4 -4 -4 -4 -4 -5 -5 -6 -5 -5 -5 -5 -5 -5 -4 -4 -4 -5 -5 -5 -5 -5 -5 -5 -5 -5 -4 -4 -5 -5 -5 -3 -1 -1 -3 -5 -5 -6 -6 -6 -6 -6
-3 -3 -3 -4 -4 -4 -4 -5 -5 -5 -4 -4 -4 -4 -4 -4 -4 -4 -4 -4 -4 -4 -4 -4 -4 -5 -5 -4 -4 -4 -5 -5 -4 -2 -2 -4 -5 -6 -7 -7 -7 -6 -6
-2 -2 -3 -3 -3 -4 -4 -4 -4 -4 -4 -4 -4 -4 -4 -4 -4 -3 -3 -3 -3 -3 -3 -3 -3 -4 -4 -4 -4 -4 -5 -4 -3 -2 -2 -4 -6 -7 -7 -7 -7 -7 -6
-0 -1 -2 -3 -3 -3 -3 -4 -4 -4 -4 -4 -4 -3 -3 -3 -3 -3 -3 -3 -3 -3 -3 -3 -3 -4 -4 -4 -4 -3 -4 -3 -2 -2 -2 -4 -5 -6 -7 -7 -7 -7 -6
-1 -1 -1 -2 -2 -2 -3 -3 -3 -3 -3 -3 -3 -3 -3 -4 -4 -4 -4 -3 -3 -4 -4 -4 -4 -4 -4 -4 -3 -2 -2 -2 -2 -2 -2 -4 -5 -5 -6 -6 -6 -6 -6
-2 -1 -2 -2 -2 -2 -2 -2 -3 -3 -3 -3 -3 -3 -4 -4 -4 -4 -3 -3 -3 -3 -4 -4 -4 -4 -4 -4 -2 -2 -1 -1 -2 -3 -3 -4 -4 -4 -4 -4 -5 -5 -5
-2 -2 -2 -2 -2 -2 -2 -2 -3 -3 -3 -3 -3 -3 -4 -4 -4 -3 -3 -3 -3 -3 -3 -3 -4 -4 -4 -3 -2 -2 -2 -2 -3 -3 -4 -4 -4 -3 -2 -2 -3 -4 -4
-2 -2 -3 -2 -2 -2 -3 -3 -2 -3 -3 -3 -3 -4 -4 -4 -4 -3 -2 -2 -2 -3 -3 -3 -4 -4 -4 -3 -3 -3 -3 -3 -4 -4 -3 -3 -3 -1 -1 -1 -3 -4 -4
-2 -2 -2 -2 -2 -3 -3 -3 -2 -2 -2 -3 -3 -4 -4 -4 -3 -2 -1 -0 -1 -2 -3 -3 -3 -4 -4 -4 -4 -4 -4 -4 -3 -3 -2 -2 -2 -1 -1 -1 -3 -3 -4
-2 -2 -2 -2 -2 -3 -3 -3 -2 -3 -3 -3 -3 -3 -4 -4 -3 -2 -0 1 -0 -1 -2 -3 -3 -3 -4 -4 -4 -3 -3 -3 -3 -2 -1 -1 -1 -2 -2 -2 -3 -3 -3
-2 -2 -2 -2 -3 -3 -3 -3 -3 -3 -3 -3 -3 -3 -3 -3 -3 -1 0 1 0 -1 -2 -3 -3 -3 -3 -3 -3 -2 -2 -2 -2 -1 -0 -0 -1 -1 -2 -3 -3 -3 -3
-2 -2 -2 -2 -3 -3 -3 -3 -3 -3 -3 -3 -3 -3 -3 -3 -3 -1 -0 0 -1 -2 -3 -3 -3 -3 -3 -2 -2 -1 -1 -1 -1 -1 -1 -1 -1 -1 -2 -2 -2 -2 -2
-2 -2 -2 -2 -3 -3 -3 -3 -3 -3 -3 -3 -3 -4 -4 -3 -3 -3 -2 -2 -2 -3 -3 -4 -4 -4 -3 -3 -2 -2 -1 -0 -0 -1 -2 -1 -1 -2 -2 -2 -2 -2 -2
-2 -2 -2 -3 -3 -3 -3 -3 -3 -3 -3 -3 -3 -3 -3 -3 -4 -4 -3 -3 -3 -4 -4 -4 -4 -4 -4 -3 -3 -2 -2 -1 -1 -1 -2 -1 -1 -2 -2 -2 -2 -2 -2
-2 -2 -3 -3 -3 -3 -3 -3 -3 -2 -3 -3 -3 -3 -3 -3 -4 -4 -4 -4 -4 -4 -4 -4 -4 -4 -4 -4 -3 -3 -3 -2 -2 -2 -2 -1 -1 -1 -2 -2 -2 -2 -2